Wind_Speed
16 13 11 9 9 9 8 6 5 6 7 5 6 7 10 11 12 13 14 15 16 17 18 19 18 18 17 16 16 15 12 11 11 10 8 9 7 5 4 3 2 2 2 2
16 14 13 12 12 11 9 7 6 7 7 6 7 7 7 10 12 13 13 14 15 16 17 18 19 18 18 17 16 15 13 12 11 10 9 8 7 5 4 4 3 2 2 3
17 13 15 15 13 12 10 10 9 9 8 7 8 10 8 9 11 13 14 14 14 16 16 17 18 18 18 17 16 15 13 12 11 10 9 8 7 6 5 5 4 4 3 3
19 17 18 17 16 13 11 11 11 10 9 7 7 13 11 9 10 13 14 15 15 15 16 16 17 17 17 16 15 14 13 12 11 10 9 8 7 6 6 5 5 5 4 4
19 19 20 19 16 15 14 13 12 10 9 9 8 11 11 8 9 11 12 14 14 15 15 15 16 16 16 15 15 14 13 12 12 11 9 8 8 7 6 6 6 6 5 5
21 19 20 19 17 17 16 13 11 9 9 12 9 10 12 9 9 11 12 14 14 13 14 14 15 15 15 15 14 14 13 12 11 11 10 9 8 7 7 7 7 7 6 6
22 21 21 20 19 18 16 13 10 10 11 13 10 11 14 12 12 13 13 14 14 13 12 13 13 14 14 14 14 14 13 12 12 11 10 9 9 7 7 8 7 7 7 6
20 20 20 21 20 18 17 15 14 12 11 12 10 10 13 15 16 14 13 13 13 12 12 12 13 13 14 14 13 13 13 13 12 11 10 10 9 8 8 8 8 8 8 8
17 18 19 21 21 20 19 18 16 15 15 15 12 10 15 18 17 14 13 13 13 12 12 11 12 12 13 13 13 13 13 13 13 11 11 10 10 9 9 9 9 9 9 9
23 20 18 20 23 23 22 20 17 18 18 16 14 14 15 17 17 16 15 14 14 13 12 11 11 12 12 12 12 13 13 13 13 12 11 11 10 10 10 10 10 10 10 10
27 26 21 20 23 22 22 23 22 20 19 17 17 15 14 17 17 16 15 15 15 13 12 12 12 12 12 12 12 12 12 12 13 13 12 11 11 11 11 11 10 11 11 11
29 29 27 24 22 22 22 22 22 23 22 21 18 18 15 15 16 16 15 15 16 14 13 14 13 13 12 12 12 12 12 12 12 13 13 12 12 12 12 11 11 12 12 12
32 32 31 27 23 22 24 24 24 23 22 21 19 21 20 18 18 18 18 18 17 16 16 16 14 12 13 12 12 12 13 13 13 13 13 13 13 13 12 12 12 13 13 13
34 35 33 29 24 21 23 24 24 25 24 23 22 21 20 19 19 19 19 19 18 17 17 18 15 14 14 13 14 13 13 14 15 14 15 15 15 14 14 14 14 14 14 14
35 36 36 34 29 24 22 21 22 24 26 26 23 22 24 24 21 21 21 20 20 19 19 19 16 16 15 15 15 15 16 16 16 16 16 16 16 16 16 15 16 16 16 16
36 37 36 36 34 30 28 25 24 24 25 25 25 25 27 26 25 25 22 22 22 21 21 19 18 18 17 17 17 16 17 17 17 18 17 17 17 18 18 17 17 18 18 18
35 36 37 36 33 33 33 30 28 27 27 26 27 28 28 28 30 30 27 24 24 23 22 21 20 19 18 18 18 18 18 18 18 18 19 19 18 19 19 19 19 19 19 19
35 35 36 36 34 36 35 30 28 28 29 29 28 29 30 31 32 32 29 27 26 25 24 23 23 22 22 21 21 21 21 20 21 21 21 21 21 21 21 21 21 21 21 20
36 36 37 37 36 36 34 32 30 29 31 29 30 31 33 34 34 33 31 28 27 27 27 26 25 25 24 24 23 23 23 23 23 23 24 23 23 23 23 23 23 23 23 23
36 37 37 37 37 36 34 31 29 30 33 33 33 33 35 35 35 35 32 30 29 29 28 28 27 27 27 27 27 26 26 27 26 26 27 27 26 25 25 25 25 24 24 24
34 36 38 38 38 36 34 33 32 34 35 34 34 35 36 36 35 35 33 31 30 29 29 29 29 29 29 29 30 30 29 29 29 30 30 29 28 27 27 26 25 25 26 26
33 34 36 37 37 38 38 36 35 37 37 36 36 36 36 36 36 36 34 33 33 32 31 31 31 31 31 32 32 32 32 32 32 32 32 31 30 29 28 28 28 28 27 28
34 34 35 36 38 39 40 40 40 40 38 37 37 37 37 36 37 37 35 35 35 34 33 33 33 34 34 34 34 35 35 35 34 34 34 33 32 31 31 30 30 30 31 31
36 38 38 39 39 40 40 41 41 41 40 39 38 38 38 38 37 36 36 36 36 35 34 34 35 35 35 35 35 35 36 36 36 35 35 34 34 33 33 34 34 33 33 33
38 39 40 41 42 43 41 41 42 40 40 42 42 41 40 40 40 39 38 38 38 37 36 36 36 37 37 36 37 37 37 37 37 37 37 37 36 36 36 36 36 35 35 35
38 39 41 43 43 43 43 43 45 44 42 42 42 42 42 41 41 40 40 39 39 39 38 38 38 39 38 38 38 39 39 39 38 38 38 38 38 38 38 38 36 36 37 37
Wind_Direction
204 205 200 198 216 226 220 224 249 258 275 288 297 313 326 336 337 347 354 360 5 8 11 12 11 10 9 9 9 10 9 8 6 6 6 8 9 8 358 342 323 291 275 278
211 216 211 207 217 223 225 223 245 272 283 279 286 291 301 321 328 339 349 354 359 4 7 8 7 7 7 7 5 8 9 8 6 7 7 8 9 13 12 351 341 330 298 282
214 217 223 217 223 227 230 231 232 244 261 278 294 301 291 311 325 329 339 348 353 358 1 1 2 3 4 4 3 5 7 9 9 9 7 359 356 0 356 345 338 333 310 296
221 219 223 223 221 223 232 236 240 247 259 268 279 290 297 303 312 323 332 338 344 350 355 356 356 358 359 1 1 4 6 8 7 4 1 357 352 346 348 347 339 339 334 315
222 223 225 224 224 223 225 229 236 243 253 262 260 281 287 290 296 312 322 326 333 341 348 352 352 354 355 357 359 1 3 4 4 3 359 357 352 344 345 346 343 342 337 323
221 223 227 226 225 227 226 229 236 245 255 267 267 265 276 269 284 294 304 311 322 331 340 345 348 351 352 355 357 358 0 2 3 3 358 353 351 349 349 345 341 338 333 328
227 226 229 226 225 228 227 227 237 255 260 265 261 261 271 273 276 281 287 299 313 322 332 339 344 348 349 351 355 357 358 358 359 359 357 353 352 350 349 351 347 341 338 333
235 236 235 232 226 225 227 225 232 242 257 269 259 251 261 270 279 281 283 295 308 315 324 334 340 344 346 347 351 354 355 355 356 357 358 354 350 350 350 350 347 343 341 337
226 242 244 241 233 224 225 228 230 244 255 266 262 249 267 277 282 284 285 292 301 306 313 324 333 339 342 344 347 350 351 353 355 356 356 356 353 352 351 348 342 339 340 336
215 220 226 241 239 232 226 223 228 234 242 250 258 258 259 262 275 286 286 289 292 298 304 313 323 330 334 338 341 344 347 350 352 354 356 354 351 349 347 343 338 337 336 333
220 219 218 228 240 239 234 227 225 229 231 242 255 253 254 259 271 279 286 286 285 290 298 304 313 320 326 328 335 340 343 346 348 350 352 350 348 344 341 340 339 339 338 334
223 223 222 224 235 241 235 234 232 232 232 230 245 257 259 265 264 271 277 279 283 287 293 298 304 312 316 322 328 330 333 336 340 344 346 347 345 342 339 338 335 335 334 333
224 225 225 224 227 236 237 234 231 232 238 237 241 256 257 259 259 265 268 272 275 279 283 287 292 302 308 313 320 322 324 327 329 334 336 337 337 336 334 334 334 333 331 329
228 229 227 224 226 233 240 239 235 230 233 240 242 250 254 258 265 264 265 270 271 271 275 279 286 293 298 304 310 313 319 323 326 328 329 329 327 328 326 326 327 328 327 326
232 232 231 225 220 226 237 239 237 236 234 234 237 247 254 256 255 258 263 268 270 268 270 275 279 287 291 297 304 308 314 318 320 320 319 321 322 322 321 318 320 322 323 322
234 233 232 229 223 223 230 231 231 235 237 237 237 241 250 254 255 255 258 265 267 266 267 271 275 280 284 289 295 300 306 311 313 314 314 314 315 316 318 316 315 317 319 318
238 236 233 232 230 229 230 231 233 237 240 240 239 242 246 252 255 257 257 259 263 266 266 268 272 275 278 283 288 292 297 302 307 310 310 312 313 314 314 315 314 315 316 315
239 238 237 234 232 234 233 232 234 237 239 238 239 240 243 247 251 256 256 257 259 262 264 266 269 271 273 277 282 286 290 294 299 303 305 307 309 309 308 309 310 310 310 310
239 239 238 236 237 239 236 233 233 237 238 236 238 241 242 244 250 256 256 257 258 260 262 264 266 268 270 274 278 281 285 289 293 298 299 301 303 304 305 305 304 304 306 305
239 239 238 237 236 240 241 237 234 237 239 237 236 239 242 246 249 254 258 258 257 258 260 262 264 267 269 272 275 278 281 285 289 292 295 296 298 300 301 302 301 301 304 304
239 239 239 238 238 239 240 238 234 237 239 239 239 241 243 246 249 254 257 257 257 259 259 261 263 265 268 270 273 276 280 282 285 288 290 291 293 295 296 298 300 299 300 301
239 239 240 239 237 237 238 237 236 239 240 242 243 243 244 246 249 253 256 258 259 259 259 261 262 265 267 269 271 274 277 280 282 286 287 286 287 291 292 293 296 297 299 300
234 235 233 235 235 236 238 239 238 238 241 243 246 247 249 249 250 253 255 257 259 259 258 259 262 264 265 267 269 271 275 278 281 284 285 284 283 285 287 290 292 295 297 298
233 234 233 233 234 235 237 238 239 240 243 246 246 247 249 251 253 254 256 257 258 260 260 261 262 264 265 267 269 271 274 276 278 280 281 282 283 283 285 287 289 291 293 295
233 233 234 236 238 238 239 239 240 242 243 245 247 250 251 252 253 254 256 257 258 259 260 261 262 264 266 267 269 270 272 274 276 277 278 280 281 282 282 283 285 287 290 291
235 233 234 237 240 240 240 239 238 242 245 246 247 249 250 252 254 255 256 257 258 259 259 261 263 264 265 267 270 271 273 274 274 275 275 278 279 280 281 282 283 285 287 288
Height
5929 5932 5934 5937 5940 5942 5943 5945 5946 5947 5945 5945 5944 5942 5940 5938 5936 5934 5931 5928 5926 5924 5921 5919 5916 5914 5912 5910 5908 5905 5903 5902 5901 5899 5898 5898 5897 5896 5896 5895 5895 5895 5896 5896
5928 5930 5933 5935 5938 5940 5942 5944 5946 5945 5945 5944 5943 5941 5940 5939 5937 5934 5932 5929 5927 5925 5923 5920 5918 5915 5913 5911 5908 5906 5904 5903 5901 5900 5899 5898 5897 5897 5896 5896 5895 5895 5895 5895
5925 5930 5931 5933 5935 5938 5940 5942 5943 5944 5943 5943 5942 5942 5939 5938 5936 5934 5932 5930 5928 5925 5923 5921 5919 5916 5914 5911 5909 5907 5905 5903 5902 5900 5899 5898 5898 5897 5897 5896 5896 5895 5895 5895
5922 5926 5928 5931 5933 5936 5938 5940 5941 5941 5941 5942 5943 5941 5938 5937 5936 5934 5932 5930 5928 5926 5924 5922 5919 5917 5915 5912 5910 5908 5906 5904 5902 5901 5900 5899 5898 5897 5897 5896 5896 5895 5895 5895
5919 5922 5924 5927 5930 5933 5935 5937 5938 5939 5939 5940 5941 5940 5938 5936 5934 5934 5933 5930 5928 5926 5924 5922 5920 5918 5915 5913 5911 5908 5907 5905 5903 5901 5900 5899 5898 5897 5896 5896 5896 5895 5895 5894
5915 5919 5921 5924 5927 5929 5931 5933 5935 5936 5937 5938 5939 5939 5937 5933 5934 5933 5932 5930 5928 5926 5924 5922 5920 5918 5916 5914 5911 5909 5907 5905 5903 5902 5900 5899 5898 5897 5896 5896 5895 5895 5894 5893
5911 5914 5917 5920 5923 5926 5928 5931 5933 5935 5936 5936 5936 5937 5935 5933 5933 5933 5931 5929 5927 5926 5924 5922 5920 5918 5916 5914 5912 5910 5908 5906 5904 5902 5900 5899 5898 5897 5896 5895 5895 5894 5893 5892
5908 5912 5914 5916 5919 5922 5925 5928 5931 5933 5934 5934 5933 5935 5934 5932 5931 5930 5929 5927 5926 5924 5923 5921 5919 5917 5916 5914 5912 5910 5908 5906 5904 5902 5900 5899 5898 5897 5896 5895 5894 5894 5892 5892
5907 5910 5912 5913 5915 5918 5921 5924 5928 5931 5931 5931 5931 5932 5931 5929 5928 5927 5926 5925 5924 5923 5921 5920 5918 5917 5915 5914 5912 5910 5908 5906 5904 5902 5901 5899 5898 5897 5896 5895 5894 5893 5892 5891
5899 5903 5908 5910 5910 5913 5916 5920 5924 5926 5927 5929 5929 5929 5928 5925 5924 5925 5924 5923 5922 5921 5920 5918 5917 5916 5914 5913 5911 5910 5908 5906 5904 5903 5901 5899 5898 5897 5895 5894 5893 5892 5891 5889
5894 5898 5902 5905 5906 5909 5912 5914 5917 5920 5922 5925 5925 5926 5922 5922 5921 5922 5921 5920 5919 5918 5918 5917 5916 5915 5913 5912 5910 5909 5907 5906 5904 5903 5901 5899 5898 5896 5895 5893 5892 5891 5889 5888
5887 5891 5894 5899 5902 5904 5907 5910 5912 5915 5917 5919 5920 5922 5918 5919 5919 5919 5919 5917 5916 5915 5915 5915 5914 5913 5911 5910 5909 5908 5907 5905 5904 5902 5901 5899 5897 5896 5894 5892 5891 5889 5888 5886
5880 5884 5888 5893 5898 5900 5901 5904 5907 5910 5913 5914 5917 5918 5916 5915 5915 5915 5915 5914 5914 5914 5913 5912 5910 5910 5910 5909 5908 5906 5905 5904 5902 5901 5900 5898 5896 5895 5893 5892 5890 5888 5887 5885
5873 5876 5882 5887 5891 5895 5896 5898 5901 5904 5907 5909 5911 5911 5909 5910 5910 5911 5911 5911 5911 5910 5909 5908 5907 5908 5907 5907 5906 5904 5903 5901 5899 5898 5898 5896 5895 5893 5891 5890 5888 5886 5885 5883
5865 5869 5873 5878 5883 5887 5890 5892 5895 5898 5900 5903 5906 5907 5904 5905 5905 5906 5906 5907 5906 5906 5905 5903 5904 5905 5904 5903 5903 5902 5901 5900 5899 5897 5896 5894 5892 5891 5889 5888 5886 5885 5883 5881
5857 5861 5865 5869 5875 5879 5882 5886 5889 5891 5894 5896 5899 5900 5899 5898 5898 5899 5901 5902 5902 5902 5902 5900 5900 5902 5902 5901 5901 5900 5899 5898 5897 5895 5894 5892 5890 5888 5886 5884 5883 5882 5880 5879
5849 5854 5858 5862 5867 5871 5874 5879 5882 5885 5888 5890 5892 5894 5892 5892 5893 5894 5896 5897 5897 5897 5897 5898 5898 5898 5898 5898 5897 5896 5896 5894 5893 5892 5890 5888 5887 5885 5883 5881 5880 5878 5877 5875
5842 5845 5850 5854 5859 5861 5868 5873 5875 5878 5880 5882 5884 5885 5885 5885 5885 5887 5888 5890 5891 5891 5892 5892 5892 5893 5893 5893 5893 5892 5892 5890 5889 5888 5887 5885 5883 5881 5879 5877 5876 5874 5873 5871
5834 5837 5841 5846 5849 5853 5860 5863 5867 5869 5870 5872 5875 5876 5877 5878 5879 5879 5881 5883 5884 5885 5885 5886 5886 5887 5887 5887 5888 5887 5887 5886 5885 5884 5882 5880 5879 5877 5875 5873 5871 5870 5868 5867
5825 5829 5833 5837 5841 5845 5851 5854 5857 5859 5860 5863 5865 5867 5868 5870 5871 5871 5873 5875 5876 5877 5879 5880 5880 5880 5881 5881 5881 5881 5881 5880 5879 5878 5877 5875 5874 5872 5870 5868 5866 5865 5863 5861
5817 5820 5823 5828 5831 5836 5840 5843 5848 5851 5850 5853 5855 5858 5860 5861 5862 5864 5865 5867 5867 5870 5872 5873 5873 5874 5874 5874 5874 5874 5874 5874 5873 5871 5870 5869 5867 5866 5865 5862 5860 5859 5857 5855
5808 5812 5815 5819 5823 5828 5829 5833 5837 5837 5840 5843 5846 5847 5849 5852 5855 5855 5857 5859 5861 5863 5864 5865 5866 5866 5867 5866 5866 5867 5867 5866 5865 5864 5863 5861 5860 5859 5858 5856 5854 5852 5850 5849
5799 5803 5806 5809 5813 5816 5819 5823 5826 5828 5831 5834 5837 5839 5841 5843 5845 5848 5850 5851 5852 5853 5855 5856 5857 5858 5859 5858 5859 5859 5858 5857 5857 5856 5855 5853 5852 5851 5850 5849 5847 5845 5843 5842
5789 5791 5795 5798 5802 5805 5808 5812 5815 5818 5822 5825 5826 5828 5831 5834 5836 5839 5841 5842 5843 5844 5846 5847 5849 5849 5849 5849 5849 5849 5849 5849 5848 5847 5846 5845 5843 5842 5841 5840 5838 5837 5835 5834
5776 5780 5784 5788 5791 5795 5798 5800 5804 5807 5809 5813 5817 5819 5821 5824 5827 5829 5831 5832 5834 5835 5837 5838 5839 5840 5840 5840 5840 5840 5840 5839 5839 5838 5837 5836 5834 5833 5832 5831 5829 5828 5827 5825
5767 5771 5774 5777 5781 5783 5787 5789 5793 5797 5799 5802 5805 5808 5811 5813 5816 5818 5820 5822 5823 5825 5826 5828 5828 5829 5829 5830 5830 5830 5830 5829 5829 5828 5827 5826 5825 5824 5822 5820 5819 5817 5817 5816